Weather in Grodno

Belarus     53˚40′40″N   23˚49′46″E
temp.,
°C
wind,
m/s
gust,
m/s
humid.,
%
clouds,
%
prec.,
mm/h
press.,
hPa
HPBL,
m
30 november, mon
mon3000:00−1˚nw4797100 1.0 1020438
03:00−2˚nw3797100 1.6 1021360
06:00−2˚wnw3597100 0.1 1021231
09:00−2˚w359796 0.4 1022239
12:00−1˚w459089 0.2 1023444
15:00wsw479092 0.4 1023541
18:00−1˚sw4993100 0.1 1023436
21:00−2˚sw489095 0.1 1024265
1 december, tue
tue100:00−3˚sw389229 0.0 1024216
03:00−3˚ssw379415 0.0 1024207
06:00−3˚s379520 0.0 1024190
09:00−2˚s369431 0.0 1025205
12:00s4686100 0.0 1026607
15:00sse368289 0.1 1026580
18:00−3˚se369033 0.0 1027139
21:00−3˚se489053 0.0 1029216
2 december, wed
wed200:00−4˚se379250 0.0 1029204
03:00−5˚se379147 0.0 1030171
06:00−5˚se379324 0.0 1029176
09:00−5˚se379313 0.0 1029186
12:00−3˚ese468852 0.0 1029272
15:00−2˚ese368433 0.0 1027279
18:00−4˚ese37937 0.0 1026188
21:00−4˚se489725 0.0 1025248
3 december, thu
thu300:00−3˚ese379761 0.0 1025236
03:00−1˚se489480 0.1 1023351
06:00−2˚se4894100 0.1 1022354
09:00−2˚se499596 0.1 1021318
12:00−1˚se599189 0.0 1021450
15:00se588994 0.0 1020622
18:00−1˚se51089100 0.0 1019634
21:00−1˚se51090100 0.0 1019639
4 december, fri
fri400:00−2˚se6129193 0.0 1018471
03:00−1˚se6139090 0.0 1017465
06:00−1˚se71389100 0.0 1016526
09:00−1˚se7159098 0.0 1016474
12:00+1˚se8149197 0.0 1015631
15:00+2˚se7149498 0.0 1014658
18:00+3˚se71693100 0.0 1014665
21:00+3˚se81693100 0.0 1013579